Theta_e
315 313 312 311 311 310 311 311 311 312 313 313 314 314 316 318 320 331 337 344 340 346 351 349 352 355 354 348 350 346 355 349 347 351 350 347 345 345 345 345 346 345 349 349 349
317 315 313 312 311 311 311 311 311 312 313 313 313 314 315 319 326 334 340 341 339 343 350 357 356 355 346 349 352 351 356 349 347 348 349 347 345 345 345 344 345 349 350 350 349
318 317 316 314 312 311 311 311 311 312 313 313 314 314 316 320 326 331 337 333 337 341 351 352 354 344 345 352 353 353 354 346 348 348 348 348 346 345 345 345 346 349 350 350 349
318 318 317 316 313 312 311 311 312 312 313 313 314 314 315 321 340 348 343 331 341 347 351 352 352 349 349 350 347 352 349 346 348 347 346 346 346 346 345 344 345 349 348 347 348
317 318 318 317 314 312 311 312 312 313 313 314 314 314 316 321 329 339 347 346 346 348 344 344 343 349 355 347 348 348 348 344 344 344 345 346 347 345 343 343 344 346 349 349 349
317 317 317 317 315 312 312 314 313 313 314 314 314 314 316 320 337 337 347 348 348 352 345 339 346 348 351 349 351 352 350 344 345 346 348 347 345 344 343 343 343 344 345 348 349
316 316 317 318 315 312 315 316 314 313 314 313 314 314 317 329 336 346 346 349 353 356 349 346 347 350 352 349 348 352 351 344 344 343 347 348 348 345 342 342 341 342 343 343 343
315 316 316 317 316 314 316 316 313 313 314 313 314 315 324 334 338 344 343 352 353 353 352 354 349 345 347 345 349 353 349 350 345 344 343 346 352 346 343 342 342 342 342 342 342
315 315 316 317 316 315 316 315 313 313 313 314 315 317 326 337 338 344 339 347 349 350 349 350 349 346 343 346 349 350 356 353 351 347 345 345 349 347 345 345 345 345 344 344 345
315 315 315 316 315 316 316 318 314 314 314 315 325 328 331 343 338 339 344 348 351 349 347 349 350 348 347 346 352 354 357 351 351 350 348 346 346 345 346 346 346 346 347 348 348
315 315 315 316 315 317 317 321 324 319 321 319 324 330 330 334 337 338 343 347 350 348 343 342 350 352 348 344 344 347 353 355 353 351 351 350 347 344 343 344 344 343 347 348 348
315 315 315 315 316 317 322 324 321 322 320 322 322 321 324 324 329 338 342 342 344 345 341 339 341 348 348 345 346 346 353 353 354 352 351 350 347 346 345 342 343 343 345 348 349
315 315 315 316 316 317 321 322 321 322 319 320 322 323 324 327 332 341 342 343 344 345 344 341 341 341 350 349 347 346 351 356 358 355 352 351 351 346 344 346 344 343 343 347 347
315 315 316 317 314 318 322 322 322 320 313 317 321 324 324 325 327 334 338 344 345 346 345 343 343 344 351 351 345 353 349 353 355 353 354 349 354 348 345 344 344 344 344 346 347
315 315 316 316 322 323 322 322 321 321 320 324 321 324 326 326 325 325 327 340 344 343 342 342 339 346 351 349 346 350 346 354 352 352 350 352 349 346 343 345 343 343 343 346 346
314 315 316 317 318 325 323 321 320 315 320 323 323 322 322 324 326 326 325 327 344 337 332 333 333 333 337 339 343 337 348 352 350 348 353 350 346 346 344 345 342 343 344 346 346
314 315 315 317 325 326 323 320 314 316 320 322 320 319 319 321 322 323 324 324 323 325 324 326 326 326 333 335 333 335 326 327 330 348 349 346 351 348 343 342 342 345 343 346 347
314 315 319 317 327 322 321 315 319 320 321 321 320 319 320 320 321 323 322 323 323 323 322 322 324 325 329 332 332 333 328 326 332 332 335 346 352 349 345 343 346 346 345 346 347
316 318 323 321 320 323 322 315 317 321 322 321 319 320 320 321 320 320 320 321 321 320 322 319 321 322 324 325 330 333 334 328 331 328 329 346 351 349 347 348 346 344 349 351 349
323 323 325 321 323 322 317 318 320 322 323 321 321 321 320 320 321 318 319 320 321 319 320 319 321 320 322 328 329 328 328 332 325 332 333 336 355 352 350 346 348 346 346 346 348
320 329 324 320 323 321 316 317 321 323 323 321 321 320 319 320 320 319 321 322 321 321 319 317 317 319 323 323 325 324 326 326 323 324 329 335 352 352 351 348 343 341 339 338 339
324 330 320 322 320 316 315 318 321 321 323 321 321 321 320 319 320 321 321 321 323 322 322 318 313 317 318 321 322 322 322 321 323 325 324 328 354 348 344 342 339 338 337 336 337
324 328 322 322 316 315 318 320 322 321 320 320 320 320 320 320 320 320 321 323 322 321 322 321 315 315 317 317 320 324 322 319 317 317 322 327 355 344 341 340 340 336 337 337 334
330 328 329 322 323 320 318 321 323 324 323 323 322 321 321 320 319 320 321 322 323 323 324 320 314 314 316 318 322 325 325 324 319 319 323 345 353 348 340 340 337 336 336 337 336
331 328 329 326 327 325 323 322 323 323 325 326 324 324 324 325 324 323 322 321 322 326 323 316 318 321 320 324 326 328 328 325 330 326 325 350 351 345 340 337 335 334 334 334 334
330 330 329 329 328 323 320 323 325 326 326 326 325 325 322 324 324 323 322 321 324 324 323 319 320 321 320 326 327 329 330 329 328 343 347 347 348 341 338 336 334 334 334 334 335
326 327 330 328 327 330 330 332 328 326 326 326 324 323 324 324 325 325 323 323 324 324 322 322 323 322 324 325 327 329 330 329 332 337 342 342 339 337 335 334 334 334 335 337 334
Wind_Speed
13 12 12 12 11 11 10 9 8 7 8 7 6 6 4 4 5 7 7 6 3 2 5 7 7 3 10 6 5 4 1 1 5 10 11 21 23 21 18 33 14 3 30 34 32
14 13 13 13 12 11 10 9 7 7 8 7 6 5 5 4 6 9 5 5 5 2 4 5 8 7 8 13 4 3 2 5 6 15 16 23 28 22 15 20 21 29 26 33 33
15 14 14 13 13 12 10 9 7 6 8 7 6 5 4 4 5 0 10 5 3 4 4 10 3 20 5 12 5 4 3 8 22 25 26 22 26 21 27 14 35 38 36 37 33
15 15 15 14 13 12 10 8 7 6 8 6 6 4 3 3 1 4 3 9 8 6 6 8 10 8 5 2 10 6 7 13 27 24 24 19 29 23 27 17 30 35 39 35 32
15 15 15 15 13 12 10 8 7 6 7 5 5 4 2 3 6 1 8 15 14 6 10 9 15 7 5 7 8 4 11 19 24 19 14 20 23 16 24 31 33 31 33 31 28
15 15 15 15 13 11 9 8 6 5 6 4 4 2 2 3 4 7 12 15 16 13 20 14 1 4 5 9 7 9 16 20 25 24 29 31 25 20 26 35 33 34 33 31 29
16 15 15 14 13 10 9 7 5 4 4 3 3 3 6 5 0 12 11 15 15 12 15 12 5 5 3 3 8 15 7 14 14 17 19 32 14 14 32 34 32 31 32 30 27
16 15 15 14 12 9 9 6 3 1 3 2 1 3 5 3 5 10 14 14 8 7 0 11 11 9 4 6 4 6 4 2 1 17 15 12 11 20 31 30 29 29 28 24 26
17 16 15 14 11 7 7 3 1 1 1 2 1 2 5 4 13 11 11 16 11 9 7 11 14 6 4 6 6 4 2 2 3 2 8 6 8 21 29 27 24 26 25 30 27
17 16 15 13 10 6 3 4 3 2 2 4 3 2 11 15 15 11 11 11 11 9 6 17 3 4 5 4 6 6 3 1 4 8 11 8 6 16 28 28 27 24 21 28 31
18 17 15 12 8 4 2 3 3 0 4 7 4 7 4 10 16 14 9 13 16 11 6 11 4 6 12 9 4 9 5 8 11 6 7 13 15 17 24 26 22 23 33 36 33
18 17 14 10 6 1 4 5 6 6 8 14 17 24 22 16 8 20 14 12 11 10 5 2 8 12 16 8 2 11 7 2 7 3 3 7 7 3 6 19 27 27 29 38 36
19 17 13 8 4 3 1 7 8 13 3 11 14 15 18 9 22 21 23 23 9 5 4 6 12 14 15 10 7 5 12 10 9 6 4 1 7 6 7 15 28 32 36 37 37
19 16 12 4 3 4 2 7 9 10 5 6 5 8 14 5 5 19 22 20 6 12 7 8 8 9 13 11 10 5 15 15 22 13 4 9 4 8 7 7 14 30 32 39 36
18 15 10 3 3 3 6 3 2 5 4 4 6 3 8 14 2 6 19 21 10 10 3 11 3 9 13 9 19 11 21 23 17 7 6 8 1 7 9 8 10 24 31 38 42
18 15 8 5 5 1 6 3 3 6 4 2 9 6 6 6 14 10 10 19 21 5 1 9 6 4 4 3 24 1 18 13 6 4 1 16 8 5 7 16 11 13 28 36 40
16 12 7 6 7 1 4 3 5 3 6 3 5 6 8 7 6 5 2 4 5 3 6 7 8 6 5 4 5 5 6 2 3 1 6 13 4 14 8 8 9 12 28 33 38
15 7 4 5 8 2 1 5 2 4 5 4 5 3 7 7 7 6 5 5 5 5 4 4 9 2 1 5 9 6 9 6 6 5 2 4 6 7 9 15 19 17 16 24 27
11 3 4 6 8 6 2 4 6 4 3 7 6 5 3 5 1 2 9 9 10 9 9 6 6 6 4 6 10 7 3 8 4 1 4 5 4 4 3 9 18 21 19 16 14
10 1 3 5 5 7 5 4 4 3 4 2 4 3 6 6 6 7 3 3 7 11 12 9 3 7 9 4 4 9 5 1 3 1 3 5 3 4 3 7 12 16 24 24 26
7 3 5 5 8 2 3 6 5 13 3 4 2 4 2 3 2 5 4 5 6 8 9 4 5 9 2 2 3 4 2 3 5 5 5 3 3 6 13 14 16 18 21 24 26
6 2 8 10 2 2 1 4 3 4 6 3 2 2 2 3 3 3 2 5 19 4 5 4 6 5 9 4 6 7 7 5 5 5 3 5 2 5 16 22 28 26 24 24 25
11 5 8 11 1 2 6 7 10 5 2 2 3 3 2 3 4 2 5 13 16 9 5 3 3 3 8 7 8 4 5 4 4 4 4 6 4 5 14 24 27 27 16 14 22
5 4 7 5 5 4 5 5 7 10 2 2 1 3 5 6 1 4 4 4 17 11 16 1 4 5 6 6 3 6 9 3 5 3 4 4 10 12 11 16 17 21 27 26 21
8 4 7 3 6 9 4 3 5 6 6 12 6 5 2 3 5 6 5 6 10 15 9 4 2 3 1 2 10 10 11 11 8 1 4 12 14 17 11 14 21 25 24 23 22
6 7 9 10 12 8 7 7 3 5 3 3 4 4 5 1 2 5 5 4 3 4 5 7 2 4 5 8 18 15 20 15 9 7 13 15 8 7 17 17 19 23 26 25 22
11 8 4 7 10 5 5 10 4 3 4 6 4 2 4 6 10 13 7 5 3 4 2 4 3 4 4 6 2 10 10 12 9 9 6 6 7 16 11 16 21 23 23 22 21
Wind_Direction
351 347 339 334 329 324 320 317 317 307 295 302 311 307 297 272 259 245 240 186 210 113 118 168 191 322 204 262 255 219 89 143 131 138 134 128 122 140 131 138 143 213 147 152 148
352 349 341 335 332 328 324 320 317 304 292 298 308 306 306 286 267 254 204 184 171 75 59 17 341 57 333 312 264 292 68 237 136 122 124 136 137 128 127 139 118 122 145 149 148
351 349 343 337 335 330 328 324 315 300 289 296 305 305 309 302 310 148 207 198 181 121 138 63 24 118 232 293 262 223 263 117 127 125 133 140 135 140 141 142 148 147 150 158 161
350 348 343 337 336 333 331 327 316 298 287 297 301 308 313 293 167 345 157 182 166 145 135 118 124 146 184 269 295 311 296 118 123 136 143 147 134 145 152 159 150 151 157 160 164
347 345 343 337 336 335 334 331 317 295 286 296 296 312 294 271 262 254 146 150 148 141 51 78 50 33 16 308 287 336 327 117 131 133 140 158 131 120 126 143 151 149 166 170 173
345 344 341 336 335 336 338 332 316 288 280 287 289 296 262 271 328 172 150 148 151 123 98 104 312 14 247 5 47 318 326 110 108 100 103 104 115 117 139 148 155 164 172 180 185
344 342 338 334 333 339 338 330 317 282 271 273 270 260 248 260 354 164 138 153 144 130 120 129 215 170 175 190 19 346 19 103 116 113 112 108 116 136 152 156 163 175 183 183 183
344 341 335 333 331 340 335 329 333 262 244 258 245 258 248 331 185 176 147 157 169 147 253 211 147 107 85 50 51 30 31 35 235 124 159 107 155 151 157 164 175 183 189 188 190
345 340 334 332 329 340 338 343 52 140 170 141 173 249 285 209 187 187 183 158 158 175 198 160 169 88 85 102 79 330 263 351 13 10 133 99 144 164 165 170 188 193 193 197 193
346 341 334 330 325 340 1 47 47 106 146 144 192 279 204 198 193 204 204 193 205 185 225 164 136 81 316 140 184 171 194 124 56 323 30 119 159 166 171 175 193 198 175 170 183
346 342 336 327 319 335 4 1 36 186 257 227 247 231 354 218 211 208 201 215 226 222 181 190 123 187 212 221 198 138 126 112 74 43 83 260 161 175 183 185 197 188 167 173 184
346 342 337 324 305 311 25 22 28 337 300 284 268 257 260 267 261 215 204 206 204 222 184 3 236 210 213 189 215 157 147 117 117 116 88 338 168 216 215 207 198 194 174 179 181
344 342 338 321 277 206 297 31 10 343 304 292 244 249 255 234 209 203 204 219 218 248 238 186 257 201 194 176 174 213 178 158 144 132 16 104 289 246 240 222 203 195 196 188 182
342 341 337 321 176 197 328 352 350 351 55 275 195 252 245 223 236 207 212 207 216 240 240 236 251 161 197 209 168 208 179 154 153 142 197 185 242 251 217 235 207 198 190 189 189
339 333 329 285 214 220 332 17 356 333 38 190 184 164 198 179 129 202 209 207 204 247 122 262 292 215 196 217 172 224 173 170 165 114 104 200 323 264 132 210 223 198 194 189 189
338 323 314 279 230 250 271 217 337 48 265 266 164 178 119 202 248 252 260 217 221 222 343 263 278 216 232 199 183 61 149 153 126 80 305 197 182 272 197 207 195 212 197 191 188
336 314 294 244 165 102 270 336 51 134 312 233 184 155 172 202 251 183 236 141 154 73 318 327 307 299 230 227 326 98 72 158 140 276 226 156 180 249 220 189 154 173 187 190 190
338 314 283 215 166 158 95 56 155 246 272 268 183 74 171 168 235 233 141 196 229 124 164 199 310 126 182 197 205 207 159 160 209 189 189 296 225 256 268 185 152 142 124 170 190
347 305 145 99 182 192 69 76 208 234 299 341 17 85 331 13 304 282 183 196 207 173 170 165 260 295 224 228 179 223 160 190 133 97 109 196 249 308 50 92 99 85 94 103 141
16 103 184 144 129 149 76 237 249 268 280 16 56 53 29 343 42 27 337 241 248 187 171 223 221 258 283 22 349 146 171 76 7 202 297 343 349 246 238 74 77 91 97 95 109
16 26 162 144 146 122 147 235 284 292 70 76 68 3 8 34 53 355 315 303 45 313 176 163 128 270 161 143 201 324 221 92 124 137 169 145 241 330 78 83 81 68 70 82 105
28 20 178 155 83 46 181 213 274 350 50 14 61 184 330 13 7 11 329 235 334 335 324 243 160 199 216 195 195 178 214 143 127 253 227 144 252 50 101 95 87 68 59 91 110
347 318 187 189 103 292 295 293 254 229 156 89 57 81 83 28 12 336 340 308 353 7 345 327 10 50 353 354 4 340 262 159 107 78 203 137 186 150 123 116 120 112 84 140 128
18 16 4 224 327 23 313 313 345 7 91 94 66 61 29 357 184 272 314 307 344 340 323 184 104 150 177 197 168 357 360 24 125 117 179 156 148 177 178 140 136 132 152 159 155
25 17 10 331 328 335 282 323 355 13 29 33 12 16 51 352 330 318 305 323 350 359 351 82 80 42 71 109 95 51 16 17 31 328 135 163 167 175 183 148 141 145 154 158 162
37 7 342 302 323 335 344 336 287 348 66 8 74 349 38 69 215 293 331 317 206 346 28 352 350 52 24 40 72 52 24 38 37 54 82 115 109 146 152 146 145 155 161 169 172
16 0 342 319 339 23 344 317 323 88 17 29 351 32 348 295 294 306 286 236 203 149 75 58 84 59 305 354 99 40 353 31 57 26 146 156 177 145 152 162 172 169 176 180 179